Weather History for KDBQ - January, 2013

Change the Weather History Date:

Tuesday, January 8, 2013

  Actual Average Record
Temperature  
Mean Temperature 29 °F 19 °F  
Max Temperature 38 °F 26 °F 56 °F (2003)
Min Temperature 19 °F 11 °F -20 °F (1970)
Degree Days  
Heating Degree Days 36 46  
Month to date heating degree days 377 368  
Since 1 July heating degree days 3057 3178  
Cooling Degree Days 0 0  
Month to date cooling degree days 0 0  
Year to date cooling degree days 0 0  
Moisture  
Dew Point 25 °F    
Average Humidity 81    
Maximum Humidity 92    
Minimum Humidity 70    
Precipitation  
Precipitation 0.00 in 0.03 in 0.95 in (1937)
Month to date precipitation T 0.31  
Year to date precipitation T 0.31  
Snow  
Snow 0.00 in 0.30 in - ()
Month to date snowfall T 2.6  
Since 1 July snowfall 19.2 17.2  
Snow Depth 5.00 in    
Sea Level Pressure  
Sea Level Pressure 30.03 in    
Wind  
Wind Speed 12 mph (South)    
Max Wind Speed 26 mph    
Max Gust Speed 31 mph    
Visibility 9 miles    
Events      
T = Trace of Precipitation, MM = Missing Value Source: NWS Daily Summary

Daily Weather History Graph

Daily Weather History Graph

Search for Another Location

Airport or City:

Trip Planner

Search our weather history database for the weather conditions in past years. The results will help you decide how hot, cold, wet, or windy it might be!

Date:

Astronomy

Jan. 08, 2013 Rise Set
Actual Time 7:31 AM CST 4:47 PM CST
Civil Twilight 7:00 AM CST 5:19 PM CST
Nautical Twilight 6:25 AM CST 5:54 PM CST
Astronomical Twilight 5:51 AM CST 6:28 PM CST
Moon 4:04 AM CST (1/8) 1:50 PM CST (1/8)
Length of Visible Light 10h 19m
Length of Day
9h 16m
Waning Crescent, 13% of the Moon is Illuminated
Jan 8
Waning Crescent
Jan 11
New
Jan 18
First Quarter
Jan 26
Full
Feb 3
Last Quarter

Hourly Weather History & Observations

Time (CST) Temp. Windchill Dew Point Humidity Pressure Visibility Wind Dir Wind Speed Gust Speed Precip Events Conditions
12:53 AM 25.0 °F 18.1 °F 21.0 °F 85% 30.07 in 9.0 mi SSW 5.8 mph - N/A   Clear
1:53 AM 21.9 °F 14.5 °F 19.0 °F 89% 30.07 in 9.0 mi SSW 5.8 mph - N/A   Clear
2:53 AM 21.0 °F 12.4 °F 18.0 °F 88% 30.08 in 8.0 mi South 6.9 mph - N/A   Clear
3:53 AM 23.0 °F 14.7 °F 19.9 °F 88% 30.07 in 8.0 mi South 6.9 mph - N/A   Clear
4:53 AM 21.0 °F 16.2 °F 19.0 °F 92% 30.07 in 7.0 mi South 3.5 mph - N/A   Clear
5:53 AM 21.0 °F 12.4 °F 18.0 °F 88% 30.07 in 7.0 mi South 6.9 mph - N/A   Clear
6:53 AM 21.0 °F 11.4 °F 19.0 °F 92% 30.08 in 6.0 mi South 8.1 mph - N/A   Clear
7:53 AM 21.9 °F 13.4 °F 19.9 °F 92% 30.09 in 6.0 mi South 6.9 mph - N/A   Clear
8:53 AM 24.1 °F 16.0 °F 21.0 °F 88% 30.10 in 8.0 mi South 6.9 mph - N/A   Clear
9:53 AM 26.1 °F 17.6 °F 21.9 °F 84% 30.09 in 8.0 mi South 8.1 mph - N/A   Clear
10:53 AM 28.0 °F 17.5 °F 24.1 °F 85% 30.08 in 8.0 mi South 12.7 mph - N/A   Clear
11:53 AM 30.9 °F 21.7 °F 26.1 °F 82% 30.05 in 9.0 mi South 11.5 mph - N/A   Clear
12:53 PM 33.1 °F 23.0 °F 27.0 °F 78% 30.02 in 9.0 mi South 15.0 mph - N/A   Clear
1:53 PM 34.0 °F 25.0 °F 28.9 °F 82% 30.01 in 9.0 mi South 12.7 mph - N/A   Clear
2:53 PM 35.1 °F 26.9 °F 28.9 °F 78% 30.00 in 9.0 mi South 11.5 mph - N/A   Clear
3:53 PM 35.1 °F 25.2 °F 28.9 °F 78% 29.97 in 9.0 mi SSE 16.1 mph - N/A   Clear
4:53 PM 34.0 °F 23.4 °F 28.9 °F 82% 29.96 in 9.0 mi South 17.3 mph - N/A   Clear
5:53 PM 34.0 °F 25.5 °F 28.0 °F 79% 29.96 in 9.0 mi South 11.5 mph - N/A   Scattered Clouds
6:53 PM 36.0 °F 25.3 °F 28.9 °F 76% 29.98 in 10.0 mi SSW 19.6 mph - N/A   Mostly Cloudy
7:53 PM 36.0 °F 24.4 °F 28.9 °F 76% 29.98 in 10.0 mi SSW 23.0 mph - N/A   Clear
8:53 PM 35.1 °F 23.8 °F 28.9 °F 78% 29.98 in 10.0 mi SSW 20.7 mph - N/A   Scattered Clouds
9:53 PM 36.0 °F 25.6 °F 28.9 °F 76% 29.96 in 10.0 mi SSW 18.4 mph - N/A   Clear
10:53 PM 37.4 °F 27.2 °F 28.4 °F 70% 29.93 in 10.0 mi SW 19.6 mph - N/A   Clear
11:53 PM 36.0 °F 25.0 °F 30.0 °F 79% 29.98 in 10.0 mi WSW 20.7 mph - N/A   Overcast